Location: Kalamazoo
(42.2920°N, 85.5870°W)
Time: 04:06:15
(UTC-04:00)

Daily predictions for brighter satellites

Satellite Brightness Start Highest point End
(mag) Time Altitude Azimuth Time Altitude Azimuth Time Altitude Azimuth
ATLAS 3B R/B 4.4 02:58:25 28° N 02:58:25 28° N 03:02:44 10° NNE
Cosmos 1980 Rocket 4.4 03:19:15 20° NE 03:19:15 20° NE 03:20:59 10° NNE
FALCON 9 R/B 4.4 03:31:24 58° SE 03:31:24 58° SE 03:58:48 10° ESE
Cosmos 2263 Rocket 4.3 03:27:24 10° N 03:31:06 22° NE 03:31:06 22° NE
SL-16 R/B 3.7 04:16:19 33° NNW 04:16:19 33° NNW 04:19:32 10° NNW
Cosmos 2322 Rocket 3.0 04:28:06 48° NE 04:28:06 48° NE 04:32:06 10° NNE
CENTAUR R/B 2.9 04:30:07 57° N 04:30:07 57° N 04:35:56 10° NNE
Cosmos 1709 Rocket 4.5 04:22:52 10° N 04:27:32 53° N 04:27:32 53° N
SL-16 R/B 2.9 04:31:51 52° NE 04:31:51 52° NE 04:36:06 10° NNE
ADEOS Rocket 3.4 04:25:11 10° NNE 04:29:19 50° NNE 04:29:19 50° NNE
USA 215 3.7 04:25:56 10° ESE 04:32:19 57° NNE 04:38:42 10° NW
ARIANE 5 R/B 3.8 04:41:22 10° N 04:44:11 32° N 04:44:11 32° N
CZ-2D R/B 3.1 04:49:42 10° N 04:53:19 37° NNW 04:53:19 37° NNW
Cosmos 2360 Rocket 2.6 04:57:54 52° SE 04:58:34 55° ESE 05:04:05 10° NNE
Resurs 1-4 Rocket 3.3 04:54:30 10° N 04:57:40 32° NNW 04:57:40 32° NNW
Cosmos 1980 Rocket 3.8 05:01:00 22° NNW 05:01:00 22° NNW 05:04:21 10° N
Cosmos 1812 4.4 05:04:57 31° NNE 05:04:57 31° NNE 05:07:07 10° NNE
Okean O Rocket 2.7 05:04:38 10° NNE 05:08:51 41° E 05:09:49 36° SE
Cosmos 2263 Rocket 3.6 05:10:35 10° NNW 05:12:41 23° NW 05:12:41 23° NW
Cosmos 2184 Rocket 4.0 05:10:08 10° N 05:16:22 82° E 05:22:38 10° S
Cosmos 1340 3.6 05:18:04 46° E 05:18:04 46° E 05:21:30 10° NNE
Meteor 1-12 Rocket 4.5 05:13:00 10° N 05:18:40 69° ENE 05:24:20 10° SSE
DELTA 2 R/B (1) 4.3 05:20:34 37° SSE 05:20:58 38° SSE 05:26:03 10° E
Cosmos 1777 Rocket 3.9 05:16:12 10° NNW 05:21:32 87° ENE 05:26:49 10° SSE
Meteor 1-18 Rocket 4.1 05:22:10 49° S 05:23:44 86° E 05:29:21 10° N
MOS 1-B 4.2 05:18:44 10° N 05:24:33 75° WNW 05:25:50 55° SW
ADEOS II 2.7 05:22:03 10° NNE 05:27:14 55° E 05:30:52 19° S
Lacrosse 5 3.9 05:34:51 14° S 05:34:51 14° S 05:35:38 10° SSE
Cosmos 1455 Rocket 3.0 05:26:36 10° N 05:31:02 86° E 05:32:07 51° SSE
Cosmos 2322 3.6 05:29:55 47° SSW 05:31:39 88° ESE 05:37:25 10° NNE
MOS 1 Rocket 3.1 05:28:16 10° N 05:33:03 69° WNW 05:33:13 69° W
EO 1 Del DPAF 3.5 05:34:09 21° SSE 05:36:36 69° ENE 05:40:27 10° N
Cosmos 1975 Rocket 4.4 05:38:19 26° NW 05:38:19 26° NW 05:40:43 10° N
Okean 1 3.2 05:40:05 75° WNW 05:40:05 75° WNW 05:44:08 10° N
Cosmos 1238 Rocket 3.5 05:46:13 26° SE 05:47:20 38° E 05:50:07 10° NNE
Cosmos 2154 Rocket 4.0 05:43:47 10° N 05:50:01 80° E 05:56:13 10° S
Cosmos 1975 2.7 05:46:18 10° NNW 05:50:20 61° W 05:50:38 59° WSW
Lacrosse 4 Rocket 1.3 05:46:17 10° NNW 05:50:30 89° WSW 05:54:46 10° SSE
CZ-4B DEB 4.2 05:50:17 10° NNE 05:55:53 86° WNW 06:00:33 15° SSW
Cosmos 1536 Rocket 3.5 05:54:41 35° SSW 05:56:26 69° W 06:00:56 10° N
Cosmos 2208 Rocket 4.1 05:53:05 18° SSW 05:57:09 80° ESE 06:02:37 10° NNE
Cosmos 1500 3.6 05:53:55 10° NNW 05:57:01 43° WNW 05:57:01 43° WNW
Tiangong 2 0.9 05:59:14 82° SSW 05:59:15 82° SSW 06:02:24 10° ESE
CZ-4B R/B 3.2 05:54:31 10° NNE 06:00:11 79° WNW 06:04:58 14° SSW
Meteor PRIRODA 4.3 05:57:40 10° NNE 06:01:23 56° E 06:05:05 10° S
IRAS Rocket 4.1 05:57:47 10° NNE 06:03:21 82° WNW 06:08:33 12° SSW
PSLV R/B 4.4 06:00:25 10° N 06:03:39 34° WNW 06:03:39 34° WNW
IRS-P2 Rocket 4.5 06:02:59 10° N 06:08:12 77° WNW 06:13:12 11° SSW
Okean 1-7 Rocket 4.4 06:03:55 10° S 06:08:18 53° E 06:12:41 10° NNE
Cosmos 2181 Rocket 4.3 06:04:25 10° S 06:10:33 70° E 06:16:49 10° NNE
Cosmos 2322 Rocket 3.7 06:09:54 17° WNW 06:11:11 18° NW 06:14:59 10° N
Gblst 52 Del rocket 4.3 06:06:19 13° WNW 06:11:29 83° SW 06:17:56 10° SE
PSLV R/B 3.6 06:07:39 10° N 06:11:56 58° WNW 06:14:44 21° SSW
Nadezhda 1 Rocket 4.2 06:10:50 18° SW 06:15:10 47° WNW 06:21:01 10° N
Cosmos 2237 4.3 06:11:23 21° SW 06:15:12 63° WNW 06:20:55 10° NNE
SL-16 R/B 3.8 06:13:43 16° WNW 06:15:13 18° NW 06:19:00 10° N
USA 215 3.5 06:09:06 10° SSE 06:15:23 47° SW 06:21:40 10° WNW
ADEOS Rocket 4.4 06:12:36 10° NNW 06:15:34 15° WNW 06:16:16 14° WNW
COSMOS 2428 2.7 06:14:19 16° SSW 06:19:00 74° WNW 06:24:43 10° NNE
ERS-2 2.1 06:16:52 10° NNE 06:20:36 84° ESE 06:24:17 10° SSW
CENTAUR R/B 4.3 06:17:17 13° WNW 06:21:13 20° NNW 06:26:22 10° NNE
CZ-2C R/B 4.0 06:17:48 10° S 06:22:12 44° W 06:26:34 10° NNW
ISS -2.1 06:24:20 18° SSW 06:24:20 18° SSW 06:26:00 10° S
Thor Agena Rocket 3.9 06:18:40 10° SSE 06:23:40 66° ENE 06:28:41 10° N
USA 229 DEB 4.1 06:17:08 10° SSW 06:23:52 65° ESE 06:30:44 10° NE
USA 229 4.1 06:17:16 10° SSW 06:23:57 64° ESE 06:30:49 10° NE
Cosmos 2219 Rocket 2.4 06:20:17 10° SSW 06:25:50 74° ESE 06:31:26 10° NNE
Meteor 2-9 Rocket 4.4 06:20:30 10° N 06:26:15 76° E 06:31:47 10° SSE
Cosmos 2341 Rocket 3.9 06:21:23 10° NNW 06:27:37 72° W 06:33:46 10° S
Meteor 1-19 Rocket 4.2 06:25:32 10° SSW 06:31:07 69° WNW 06:36:50 10° N
SL-8 R/B 4.5 06:27:37 11° WNW 06:32:02 47° NNE 06:36:39 10° E
Cosmos 1844 Rocket 2.6 06:28:50 10° NNW 06:34:22 63° WSW 06:39:50 10° S
Cosmos 1570 Rocket 4.4 06:31:16 15° SW 06:35:21 43° WNW 06:40:20 10° N
CZ-4B R/B 4.1 06:32:24 10° N 06:36:55 79° WNW 06:41:25 10° SSW
Cosmos 2218 Rocket 4.4 06:30:38 10° N 06:37:02 71° E 06:43:21 10° SSE
CZ-4B R/B 4.2 06:35:15 10° NNW 06:37:46 18° WNW 06:38:35 17° W
Cosmos 1898 Rocket 3.5 06:36:01 10° NNW 06:41:15 87° WSW 06:46:25 10° SSE
Cosmos 2360 Rocket 3.4 06:39:41 15° W 06:42:55 24° NW 06:47:29 10° N
Cosmos 2278 Rocket 2.6 06:39:03 10° NNW 06:44:43 68° ENE 06:50:21 10° SSE
Cosmos 468 Rocket 4.0 06:39:34 10° SSW 06:44:44 90° E 06:50:00 10° NNE
Okean O Rocket 3.1 06:41:42 10° NNW 06:44:56 20° WNW 06:47:17 14° WSW
Meteor 2-4 Rocket 3.7 06:44:04 10° SSW 06:49:39 66° WNW 06:55:06 10° N
Cosmos 2237 Rocket 2.6 06:45:07 10° SSW 06:50:45 70° ESE 06:56:26 10° NNE
Cosmos 405 Rocket 2.8 06:48:30 10° S 06:52:34 89° W 06:56:38 10° N
Feng Yun 1-1 Rocket 4.4 06:48:08 10° N 06:53:58 66° WNW 06:59:39 10° SSW
Okean-O 2.8 06:50:59 10° N 06:55:18 51° WNW 06:59:35 10° SSW
COSMO-SKYMED 1 2.7 06:52:13 10° SSE 06:56:33 85° E 07:00:56 10° NNW
Cosmos 1666 3.4 06:56:36 10° NNW 07:00:03 32° W 07:03:31 10° SSW
Cosmos 2228 4.1 06:56:11 10° N 07:00:25 51° E 07:04:39 10° SSE
Cosmos 1743 4.1 06:59:33 10° NW 07:02:16 18° W 07:04:58 10° SW
Meteor 1-31 Rocket 3.4 06:59:01 10° N 07:02:29 34° WNW 07:05:56 10° SW
Cosmos 2285 Rocket 4.1 06:56:08 10° SSW 07:02:32 70° WNW 07:08:59 10° NNE
Cosmos 1726 Rocket 3.6 06:59:20 10° N 07:03:48 86° W 07:08:15 10° S
ADEOS II 3.4 07:02:45 10° NNW 07:06:31 20° WNW 07:10:19 10° WSW
ATLAS 5 CENTAUR R/B 2.5 07:00:57 10° NW 07:06:59 88° WSW 07:13:31 10° SSE
DELTA 2 R/B (1) 3.8 07:01:32 10° WSW 07:07:01 66° S 07:12:31 10° E
Cosmos 2333 Rocket 2.3 07:01:32 10° SSW 07:07:12 67° WNW 07:12:56 10° NNE
BREEZE M DEB (TANK) 2.9 06:58:10 10° WNW 07:07:22 81° SSW 07:10:31 10° SE
Cosmos 1025 Rocket 3.5 07:05:03 10° SSW 07:09:11 42° WNW 07:13:23 10° N
Cosmos 1892 Rocket 3.5 07:07:16 10° S 07:11:36 79° W 07:16:00 10° N
Cosmos 1937 Rocket 3.6 07:08:21 10° NNW 07:13:37 63° WSW 07:18:50 10° S
NOSS 0 Rocket 4.0 07:08:01 10° SSW 07:14:10 70° WNW 07:20:20 10° NNE
Cosmos 1763 Rocket 3.5 07:10:33 10° SSW 07:15:36 89° ESE 07:20:46 10° NNE
NOAA 6 4.2 07:11:16 10° N 07:16:17 56° WNW 07:21:16 10° SSW
